User: anonymous
Location: Saddleback Butte
(34.6776°N, 117.8050°W)
Time: 04:07:01
(UTC-07:00)
Language:

Cosmos 1862 Rocket - Orbit

View from above orbital plane
View from above orbital plane
View from above satellite
View from above satellite

Ground track
Ground track

The orbit data is extracted from the following two-line orbital elements,

1 18153U 87055B   14210.57388810  .00000221  00000-0  24451-4 0  3990
2 18153 082.5011 013.3774 0020482 315.4349 090.3151 14.82637164462213
Epoch (UTC): 29 July 2014 13:46:23
Eccentricity: 0.0020482
inclination: 82.5011°
perigee height: 606 km
apogee height: 635 km
right ascension of ascending node: 13.3774°
argument of perigee: 315.4349°
revolutions per day: 14.82637164
mean anomaly at epoch: 90.3151°
orbit number at epoch: 46221

The dashed part of the orbit path shows where the satellite is in the earth's shadow,  

DLR